Retour au catalogue

COSMOS 2251 DEB

ActifLEO
NORAD 34554·DEBRIS·🇷🇺 Russia

Lancé Jun 16, 1993 depuis Plesetsk Cosmodrome

Loading…

Prochains Passages (prochaines 24 heures)

TLE

FraisSource: Space-Track

Époque: Sep 14, 2026, 12:22 UTC

1 34554U 93036UQ  26257.51545068  .00000425  00000-0  14779-3 0  9990
2 34554  74.0387 150.9986 0023027 152.6733 266.1726 14.38363032917203

Suivez COSMOS 2251 DEB en temps réel avec AllMySat

Download on the App Store